Retour au catalogue

DELTA 1 DEB

ActifPO
NORAD 21296·DEBRIS·🇺🇸 United States

Lancé Jun 12, 1975 depuis Vandenberg Space Force Base

Loading…

Prochains Passages (prochaines 24 heures)

TLE

FraisSource: Space-Track

Époque: Sep 14, 2026, 11:17 UTC

1 21296U 75052AH  26257.47070258  .00000209  00000-0  61077-3 0  9999
2 21296  99.5824  65.8244 0236706  57.9778 325.3563 13.10737301687997

Suivez DELTA 1 DEB en temps réel avec AllMySat

Download on the App Store